TimeCST,TemperatureF,Dew PointF,Humidity,Sea Level PressureIn,VisibilityMPH,Wind Direction,Wind SpeedMPH,Gust SpeedMPH,PrecipitationIn,Events,Conditions,WindDirDegrees,DateUTC
12:55 AM,30.7,30.6,99,30.35,10.0,SE,4.6,-,N/A,,Overcast,140,2011-11-21 06:55:00
1:55 AM,30.7,30.4,99,30.35,10.0,SE,6.9,-,N/A,,Overcast,130,2011-11-21 07:55:00
2:55 AM,30.4,30.2,99,30.35,10.0,ESE,8.1,-,N/A,,Overcast,120,2011-11-21 08:55:00
3:55 AM,30.2,29.7,98,30.36,10.0,ESE,5.8,-,N/A,,Overcast,110,2011-11-21 09:55:00
4:55 AM,29.8,28.9,96,30.37,10.0,ESE,5.8,-,N/A,,Overcast,110,2011-11-21 10:55:00
5:55 AM,29.5,27.7,93,30.36,10.0,ESE,6.9,-,N/A,,Overcast,110,2011-11-21 11:55:00
6:55 AM,29.5,27.7,93,30.37,10.0,SE,6.9,-,N/A,,Overcast,130,2011-11-21 12:55:00
7:55 AM,30.2,28.4,93,30.38,10.0,ESE,6.9,-,N/A,,Overcast,120,2011-11-21 13:55:00
8:55 AM,30.2,28.4,93,30.39,10.0,SE,4.6,-,N/A,,Overcast,130,2011-11-21 14:55:00
9:55 AM,32.0,30.2,93,30.37,10.0,East,5.8,-,N/A,,Overcast,90,2011-11-21 15:55:00
10:55 AM,33.8,28.4,81,30.37,10.0,East,4.6,-,N/A,,Overcast,80,2011-11-21 16:55:00
11:55 AM,35.6,30.2,81,30.33,10.0,East,6.9,-,N/A,,Overcast,90,2011-11-21 17:55:00
12:55 PM,37.4,30.2,75,30.32,10.0,ENE,4.6,-,N/A,,Overcast,60,2011-11-21 18:55:00
1:55 PM,37.4,30.2,75,30.29,10.0,SE,4.6,-,N/A,,Overcast,140,2011-11-21 19:55:00
2:55 PM,37.4,30.2,75,30.29,10.0,ENE,3.5,-,N/A,,Mostly Cloudy,70,2011-11-21 20:55:00
3:45 PM,35.6,30.2,81,30.25,10.0,ENE,5.8,-,N/A,,Mostly Cloudy,70,2011-11-21 21:45:00
3:55 PM,35.6,30.2,81,30.28,10.0,ENE,5.8,-,N/A,,Mostly Cloudy,70,2011-11-21 21:55:00
4:55 PM,30.2,29.3,96,30.28,10.0,ENE,4.6,-,N/A,,Clear,70,2011-11-21 22:55:00
5:55 PM,27.1,26.8,99,30.29,10.0,East,3.5,-,N/A,,Clear,90,2011-11-21 23:55:00
6:55 PM,26.2,26.1,99,30.28,10.0,ESE,5.8,-,N/A,,Clear,110,2011-11-22 00:55:00
7:55 PM,26.2,25.9,99,30.27,10.0,SE,3.5,-,N/A,,Clear,140,2011-11-22 01:55:00
8:55 PM,25.7,25.7,100,30.28,10.0,Calm,Calm,-,N/A,,Clear,0,2011-11-22 02:55:00
9:55 PM,24.8,24.8,100,30.27,10.0,Calm,Calm,-,N/A,,Clear,0,2011-11-22 03:55:00
10:55 PM,23.4,23.4,100,30.28,10.0,Calm,Calm,-,N/A,,Clear,0,2011-11-22 04:55:00
11:21 PM,23.0,23.0,100,30.29,2.5,Calm,Calm,-,N/A,,Clear,0,2011-11-22 05:21:00
11:22 PM,21.2,21.2,100,30.29,1.5,Calm,Calm,-,N/A,,Clear,0,2011-11-22 05:22:00
11:23 PM,21.2,21.2,100,30.28,1.2,Calm,Calm,-,N/A,,Clear,0,2011-11-22 05:23:00
11:24 PM,21.2,21.2,100,30.28,1.0,Calm,Calm,-,N/A,,Clear,0,2011-11-22 05:24:00
11:26 PM,21.2,21.2,100,30.28,0.8,Calm,Calm,-,N/A,,Clear,0,2011-11-22 05:26:00
11:41 PM,21.2,21.2,100,30.29,1.0,Calm,Calm,-,N/A,,Clear,0,2011-11-22 05:41:00
11:43 PM,21.2,21.2,100,30.29,1.2,Calm,Calm,-,N/A,,Clear,0,2011-11-22 05:43:00
11:44 PM,21.2,21.2,100,30.29,1.5,Calm,Calm,-,N/A,,Clear,0,2011-11-22 05:44:00
11:45 PM,21.2,21.2,100,30.29,1.8,Calm,Calm,-,N/A,,Clear,0,2011-11-22 05:45:00
11:46 PM,21.2,21.2,100,30.29,2.0,Calm,Calm,-,N/A,,Clear,0,2011-11-22 05:46:00
11:48 PM,21.2,21.2,100,30.29,1.8,Calm,Calm,-,N/A,,Clear,0,2011-11-22 05:48:00
11:49 PM,21.2,21.2,100,30.29,1.5,Calm,Calm,-,N/A,,Clear,0,2011-11-22 05:49:00
11:50 PM,21.2,21.2,100,30.29,1.2,Calm,Calm,-,N/A,,Clear,0,2011-11-22 05:50:00
11:51 PM,21.2,21.2,100,30.29,1.0,Calm,Calm,-,N/A,,Clear,0,2011-11-22 05:51:00
11:52 PM,21.2,21.2,100,30.29,0.8,Calm,Calm,-,N/A,,Clear,0,2011-11-22 05:52:00
11:55 PM,21.9,21.9,100,30.29,0.8,Calm,Calm,-,N/A,,Clear,0,2011-11-22 05:55:00
11:58 PM,21.2,21.2,100,30.29,1.0,Calm,Calm,-,N/A,,Clear,0,2011-11-22 05:58:00